Weather History for K1F0 - January, 2014

Change the Weather History Date:

Monday, January 27, 2014

  Actual Average (KADM) Record (KADM)
Temperature  
Mean Temperature 37 °F -  
Max Temperature 51 °F 51 °F 78 °F (2015)
Min Temperature 23 °F 32 °F 17 °F (2004)
Degree Days  
Heating Degree Days 28    
Moisture  
Dew Point 2 °F    
Average Humidity 30    
Maximum Humidity 65    
Minimum Humidity 19    
Precipitation  
Precipitation 0.00 in - - ()
Sea Level Pressure  
Sea Level Pressure 30.26 in    
Wind  
Wind Speed 16 mph (NE)    
Max Wind Speed 26 mph    
Max Gust Speed 41 mph    
Visibility 10 miles    
Events      
Averages and records for this station are not official NWS values.
T = Trace of Precipitation, MM = Missing Value Source: NWS Daily Summary

Daily Weather History Graph

Daily Weather History Graph

Search for Another Location

Airport or City:

Trip Planner

Search our weather history database for the weather conditions in past years. The results will help you decide how hot, cold, wet, or windy it might be!

Date:

Astronomy

Jan. 27, 2014 Rise Set
Actual Time 7:29 AM CST 5:53 PM CST
Civil Twilight 7:02 AM CST 6:20 PM CST
Nautical Twilight 6:32 AM CST 6:50 PM CST
Astronomical Twilight 6:02 AM CST 7:20 PM CST
Moon 4:09 AM CST (1/27) 2:43 PM CST (1/27)
Length of Visible Light 11h 18m
Length of Day
10h 24m
Waning Crescent, 14% of the Moon is Illuminated
Jan 27
Waning Crescent
Jan 30
New
Feb 6
First Quarter
Feb 14
Full
Feb 22
Last Quarter

Hourly Weather History & Observations

Time (CST) Temp. Windchill Dew Point Humidity Pressure Visibility Wind Dir Wind Speed Gust Speed Precip Events Conditions
12:15 AM 51.8 °F - 28.4 °F 41% 29.86 in 10.0 mi NE 10.4 mph 18.4 mph N/A   Clear
12:35 AM 51.8 °F - 28.4 °F 41% 29.87 in 10.0 mi NNE 12.7 mph 19.6 mph N/A   Clear
12:55 AM 51.8 °F - 28.4 °F 41% 29.90 in 10.0 mi NNE 15.0 mph 26.5 mph N/A   Clear
1:15 AM 50.0 °F - 28.4 °F 43% 29.94 in 10.0 mi NNE 16.1 mph 28.8 mph N/A   Clear
1:35 AM 44.6 °F 36.6 °F 30.2 °F 57% 29.96 in 10.0 mi NNE 19.6 mph 33.4 mph N/A   Clear
1:55 AM 42.8 °F 35.4 °F 30.2 °F 61% 29.99 in 10.0 mi NNE 15.0 mph 32.2 mph N/A   Clear
2:15 AM 42.8 °F 33.8 °F 30.2 °F 61% 30.01 in 10.0 mi NNE 21.9 mph 27.6 mph N/A   Clear
2:35 AM 39.2 °F 28.0 °F 26.6 °F 61% 30.03 in 10.0 mi NE 26.5 mph 31.1 mph N/A   Clear
2:55 AM 37.4 °F 26.9 °F 26.6 °F 65% 30.05 in 10.0 mi NE 20.7 mph 26.5 mph N/A   Clear
3:15 AM 37.4 °F 27.5 °F 24.8 °F 60% 30.07 in 10.0 mi NE 18.4 mph 32.2 mph N/A   Clear
3:35 AM 37.4 °F 27.2 °F 23.0 °F 56% 30.07 in 10.0 mi NE 19.6 mph 29.9 mph N/A   Clear
3:55 AM 35.6 °F 25.5 °F 21.2 °F 56% 30.08 in 10.0 mi NE 17.3 mph 24.2 mph N/A   Clear
4:15 AM 35.6 °F 23.7 °F 17.6 °F 48% 30.10 in 10.0 mi NNE 24.2 mph 31.1 mph N/A   Clear
4:35 AM 33.8 °F 23.5 °F 5.0 °F 30% 30.12 in 10.0 mi NE 16.1 mph 34.5 mph N/A   Clear
4:55 AM 32.0 °F 19.5 °F 3.2 °F 30% 30.14 in 10.0 mi NE 21.9 mph 35.7 mph N/A   Clear
5:15 AM 32.0 °F 22.1 °F 3.2 °F 30% 30.16 in 10.0 mi NNE 13.8 mph 29.9 mph N/A   Clear
5:35 AM 32.0 °F 19.8 °F 3.2 °F 30% 30.17 in 10.0 mi NE 20.7 mph 32.2 mph N/A   Clear
5:55 AM 32.0 °F 20.5 °F 3.2 °F 30% 30.17 in 10.0 mi NNE 18.4 mph 28.8 mph N/A   Clear
6:15 AM 32.0 °F 20.8 °F 5.0 °F 32% 30.20 in 10.0 mi NE 17.3 mph 41.4 mph N/A   Clear
6:35 AM 30.2 °F 17.4 °F 5.0 °F 34% 30.22 in 10.0 mi NE 20.7 mph 29.9 mph N/A   Clear
6:55 AM 30.2 °F 16.5 °F -2.2 °F 25% 30.24 in 10.0 mi NE 24.2 mph 33.4 mph N/A   Clear
7:15 AM 30.2 °F 17.1 °F -0.4 °F 27% 30.24 in 10.0 mi NE 21.9 mph 31.1 mph N/A   Clear
7:35 AM 28.4 °F 13.5 °F -2.2 °F 27% 30.25 in 10.0 mi NE 26.5 mph 33.4 mph N/A   Clear
7:55 AM 28.4 °F 16.6 °F -0.4 °F 29% 30.27 in 10.0 mi NNE 16.1 mph 34.5 mph N/A   Clear
8:15 AM 28.4 °F 16.6 °F -0.4 °F 29% 30.29 in 10.0 mi NE 16.1 mph 28.8 mph N/A   Clear
8:35 AM 28.4 °F 15.4 °F -4.0 °F 25% 30.30 in 10.0 mi NE 19.6 mph 34.5 mph N/A   Clear
8:55 AM 28.4 °F 17.0 °F -2.2 °F 27% 30.30 in 10.0 mi NNE 15.0 mph 26.5 mph N/A   Clear
9:15 AM 28.4 °F 16.2 °F -4.0 °F 25% 30.31 in 10.0 mi NNE 17.3 mph 25.3 mph N/A   Clear
9:35 AM 30.2 °F 17.8 °F -4.0 °F 23% 30.32 in 10.0 mi NNE 19.6 mph 25.3 mph N/A   Clear
9:55 AM 30.2 °F 17.8 °F -2.2 °F 25% 30.34 in 10.0 mi NNE 19.6 mph 26.5 mph N/A   Clear
10:15 AM 30.2 °F 18.5 °F -2.2 °F 25% 30.35 in 10.0 mi NNE 17.3 mph 23.0 mph N/A   Clear
10:35 AM 30.2 °F 19.3 °F -4.0 °F 23% 30.35 in 10.0 mi NNE 15.0 mph 23.0 mph N/A   Clear
10:55 AM 32.0 °F 19.5 °F -4.0 °F 21% 30.35 in 10.0 mi NE 21.9 mph 27.6 mph N/A   Clear
11:15 AM 32.0 °F 20.5 °F -4.0 °F 21% 30.35 in 10.0 mi NNE 18.4 mph 25.3 mph N/A   Clear
11:35 AM 32.0 °F 20.8 °F -5.8 °F 20% 30.35 in 10.0 mi NE 17.3 mph 26.5 mph N/A   Clear
11:55 AM 32.0 °F 20.5 °F -4.0 °F 21% 30.35 in 10.0 mi NE 18.4 mph 24.2 mph N/A   Clear
12:15 PM 32.0 °F 21.2 °F -4.0 °F 21% 30.34 in 10.0 mi NE 16.1 mph 21.9 mph N/A   Clear
12:35 PM 32.0 °F 23.0 °F -2.2 °F 23% 30.34 in 10.0 mi NNE 11.5 mph - N/A   Clear
12:55 PM 32.0 °F 22.1 °F -4.0 °F 21% 30.33 in 10.0 mi NE 13.8 mph 17.3 mph N/A   Clear
1:15 PM 32.0 °F 24.2 °F -2.2 °F 23% 30.33 in 10.0 mi NNE 9.2 mph - N/A   Clear
1:35 PM 32.0 °F 24.8 °F -4.0 °F 21% 30.32 in 10.0 mi NNE 8.1 mph 19.6 mph N/A   Clear
1:55 PM 32.0 °F 21.6 °F -4.0 °F 21% 30.32 in 10.0 mi NNE 15.0 mph 19.6 mph N/A   Clear
2:15 PM 30.2 °F 20.8 °F -4.0 °F 23% 30.31 in 10.0 mi NNE 11.5 mph 20.7 mph N/A   Clear
2:35 PM 32.0 °F 23.0 °F -4.0 °F 21% 30.31 in 10.0 mi North 11.5 mph 16.1 mph N/A   Clear
2:55 PM 30.2 °F 20.8 °F -5.8 °F 21% 30.31 in 10.0 mi NNE 11.5 mph 17.3 mph N/A   Clear
3:15 PM 32.0 °F 22.5 °F -5.8 °F 20% 30.31 in 10.0 mi NE 12.7 mph - N/A   Clear
3:35 PM 32.0 °F 22.1 °F -5.8 °F 20% 30.31 in 10.0 mi NNE 13.8 mph 18.4 mph N/A   Clear
3:55 PM 30.2 °F 20.8 °F -7.6 °F 19% 30.31 in 10.0 mi NNE 11.5 mph 17.3 mph N/A   Scattered Clouds
4:15 PM 30.2 °F 21.3 °F -7.6 °F 19% 30.31 in 10.0 mi NNE 10.4 mph 19.6 mph N/A   Clear
4:35 PM 30.2 °F 20.2 °F -5.8 °F 21% 30.31 in 10.0 mi NE 12.7 mph 18.4 mph N/A   Clear
4:55 PM 30.2 °F 20.8 °F -5.8 °F 21% 30.32 in 10.0 mi NE 11.5 mph 17.3 mph N/A   Scattered Clouds
5:15 PM 30.2 °F 19.3 °F -5.8 °F 21% 30.32 in 10.0 mi NE 15.0 mph 20.7 mph N/A   Scattered Clouds
5:35 PM 30.2 °F 19.8 °F -7.6 °F 19% 30.33 in 10.0 mi NE 13.8 mph 21.9 mph N/A   Mostly Cloudy
5:55 PM 28.4 °F 18.5 °F -7.6 °F 21% 30.33 in 10.0 mi ENE 11.5 mph 18.4 mph N/A   Overcast
6:15 PM 28.4 °F 17.5 °F -7.6 °F 21% 30.32 in 10.0 mi ENE 13.8 mph 21.9 mph N/A   Scattered Clouds
6:35 PM 26.6 °F 15.2 °F -7.6 °F 22% 30.34 in 10.0 mi ENE 13.8 mph 17.3 mph N/A   Clear
6:55 PM 26.6 °F 16.2 °F -5.8 °F 24% 30.34 in 10.0 mi NE 11.5 mph 17.3 mph N/A   Clear
7:15 PM 24.8 °F 13.4 °F -7.6 °F 24% 30.35 in 10.0 mi NE 12.7 mph 19.6 mph N/A   Scattered Clouds
7:35 PM 24.8 °F 12.9 °F -7.6 °F 24% 30.35 in 10.0 mi NE 13.8 mph 18.4 mph N/A   Mostly Cloudy
7:55 PM 23.0 °F 13.1 °F -5.8 °F 28% 30.36 in 10.0 mi ENE 9.2 mph - N/A   Mostly Cloudy
8:15 PM 23.0 °F 12.4 °F -5.8 °F 28% 30.36 in 10.0 mi ENE 10.4 mph - N/A   Scattered Clouds
8:35 PM 23.0 °F 9.6 °F -5.8 °F 28% 30.36 in 10.0 mi NE 16.1 mph 20.7 mph N/A   Scattered Clouds
8:55 PM 23.0 °F 10.6 °F -5.8 °F 28% 30.36 in 10.0 mi NE 13.8 mph 20.7 mph N/A   Clear
9:15 PM 23.0 °F 11.1 °F -5.8 °F 28% 30.36 in 10.0 mi NE 12.7 mph 16.1 mph N/A   Clear
9:35 PM 23.0 °F 12.4 °F -5.8 °F 28% 30.37 in 10.0 mi NE 10.4 mph - N/A   Clear
9:55 PM 23.0 °F 11.1 °F -5.8 °F 28% 30.37 in 10.0 mi NNE 12.7 mph - N/A   Clear
10:15 PM 23.0 °F 10.1 °F -5.8 °F 28% 30.37 in 10.0 mi NE 15.0 mph 19.6 mph N/A   Clear
10:35 PM 23.0 °F 10.1 °F -5.8 °F 28% 30.37 in 10.0 mi NE 15.0 mph 19.6 mph N/A   Clear
10:55 PM 23.0 °F 10.1 °F -5.8 °F 28% 30.38 in 10.0 mi NE 15.0 mph 19.6 mph N/A   Clear
11:15 PM 23.0 °F 11.1 °F -4.0 °F 31% 30.38 in 10.0 mi NE 12.7 mph - N/A   Clear
11:35 PM 23.0 °F 11.7 °F -4.0 °F 31% 30.39 in 10.0 mi NE 11.5 mph - N/A   Mostly Cloudy
11:55 PM 23.0 °F 12.4 °F -4.0 °F 31% 30.40 in 10.0 mi NE 10.4 mph 17.3 mph N/A   Overcast